CAPE
0 0 0 0 0 0 0 0 0 0 0 0 0 0 0 0 0 57 1162 1187 1108 1257 1392 1700 1730 1577 1408 1222 1225 1374 1297 1267 1128 1074 1150 1055 887 609 458 407 385 397 395 406 544 402 304 188 98
0 0 0 0 0 0 0 0 0 0 0 0 0 0 0 0 0 688 1149 1175 1177 1050 1382 1308 1754 1626 1361 1180 1037 1019 1281 1177 1096 853 1252 1193 999 814 636 451 293 152 30 461 232 75 2 0 0
0 0 0 0 0 0 0 0 0 0 0 0 0 0 0 0 84 266 989 938 1207 1127 1606 1219 1582 1657 1266 1069 1020 1019 1010 1152 1094 926 1159 1224 1204 960 738 356 218 111 0 136 75 0 0 0 0
0 0 0 0 0 0 0 0 0 0 0 0 0 0 0 0 603 695 788 1124 1135 1364 1388 1538 1485 1701 1525 1189 994 1039 1124 1103 1071 1124 1120 1103 1055 951 727 409 139 4 0 0 12 0 0 0 0
0 0 0 0 0 0 0 0 0 0 0 0 0 0 0 0 212 718 674 1412 1349 1440 1258 1653 1509 1561 1590 1482 1104 843 894 1149 1146 996 1169 1203 979 612 627 127 0 0 0 0 0 0 0 21 40
0 0 0 0 0 0 0 0 0 0 0 0 0 0 0 0 62 529 730 605 1355 1411 1374 1423 1416 1436 1261 1297 1177 938 767 1118 1100 913 974 969 969 705 374 57 0 0 0 0 0 0 11 28 52
0 0 0 0 0 0 0 0 0 0 0 0 0 0 0 0 0 128 705 322 642 1259 1508 1444 1424 1442 1381 1223 927 937 1059 1176 1063 908 639 729 767 633 239 35 0 0 0 0 1 0 7 44 28
0 0 0 0 0 0 0 0 0 0 0 0 0 0 0 0 0 62 142 424 555 1009 1322 1320 1468 1446 1343 1245 1142 888 797 1191 969 914 525 590 638 431 171 16 0 0 0 0 0 0 27 44 19
0 0 0 0 0 0 0 0 0 0 0 0 0 0 0 0 0 4 0 0 24 518 949 1072 1028 1244 1326 1170 1169 1057 750 733 902 695 448 472 606 274 35 0 0 0 0 0 0 0 32 35 1
0 0 0 0 0 0 0 0 0 0 0 0 0 0 0 0 0 0 0 0 0 0 0 94 806 784 851 1180 1234 1222 1124 875 624 729 541 423 419 166 4 0 0 0 0 0 1 0 24 7 2
0 0 0 0 0 0 0 0 0 0 0 0 0 0 0 0 0 0 0 0 0 0 0 0 0 105 615 589 924 1094 981 974 824 660 647 506 288 63 0 0 0 1 0 0 0 16 25 6 7
0 0 0 0 0 0 0 0 0 0 0 0 0 0 0 0 0 0 0 0 0 0 0 0 0 0 0 14 331 659 826 779 730 676 607 466 314 2 0 0 0 0 0 0 9 30 12 10 4
0 0 0 0 0 0 0 0 0 0 0 0 0 0 0 0 0 0 0 0 0 0 0 0 0 0 0 0 0 28 314 850 859 761 634 470 346 8 0 0 0 0 0 0 14 11 25 15 9
0 0 0 0 0 0 0 0 0 0 0 0 0 0 0 0 0 0 0 0 0 0 0 0 0 0 0 0 0 0 6 151 814 697 726 460 246 15 1 0 0 0 0 4 21 8 3 5 2
0 0 0 0 0 0 0 0 0 0 0 0 0 0 0 0 0 0 0 0 0 0 0 0 0 0 0 0 0 0 7 660 532 787 720 477 208 26 7 1 0 0 0 4 21 4 13 1 0
0 0 0 0 0 0 0 0 0 0 0 0 0 0 0 0 0 0 0 0 0 0 0 0 0 0 0 0 0 0 0 64 623 696 743 518 202 125 26 1 0 0 0 0 13 2 8 4 3
0 0 0 0 0 0 0 0 0 0 0 0 0 0 0 0 0 0 0 0 0 0 0 0 0 0 0 0 0 0 0 1 150 582 510 512 417 171 15 0 0 0 0 1 7 0 8 5 1
0 0 0 0 0 0 0 0 0 0 0 0 0 0 0 0 0 0 0 0 1 27 1 0 0 0 0 0 0 51 23 35 17 242 405 457 390 315 92 0 0 0 0 5 6 0 0 3 7
0 0 0 0 0 0 0 0 0 0 0 0 0 0 0 0 0 0 2 1 0 10 27 9 0 0 0 0 0 100 65 48 122 309 257 371 329 229 183 44 0 0 0 1 0 7 3 9 14
0 0 0 0 0 0 0 0 0 0 0 2 0 0 0 0 0 2 0 0 0 0 0 1 0 0 0 14 104 60 0 2 49 328 215 85 177 124 113 13 3 0 0 1 0 0 5 15 3
0 4 0 0 0 0 4 3 0 0 14 0 0 0 0 0 0 1 1 1 2 4 2 1 1 1 26 67 98 86 118 33 14 32 73 121 147 21 13 18 5 1 0 0 0 0 0 0 0
2 0 5 7 7 3 0 5 4 2 23 0 0 0 0 0 0 0 0 0 1 0 1 0 2 1 1 0 0 18 91 1 3 3 1 0 2 11 6 13 10 2 0 1 0 0 0 0 0
0 0 0 8 19 32 2 10 0 0 41 0 0 0 0 0 0 0 0 0 0 0 0 0 0 0 1 1 3 0 0 2 2 2 4 3 0 0 6 34 41 17 8 2 0 0 0 0 0
3 0 0 0 0 1 0 1 0 9 33 0 0 0 0 0 0 0 0 0 0 0 0 0 0 0 1 2 0 8 9 3 3 5 3 5 1 1 1 10 40 50 23 7 3 0 0 0 0
0 0 0 0 0 0 1 9 0 0 0 0 0 0 0 0 0 0 0 0 0 0 0 0 0 0 0 0 2 1 0 14 4 1 4 8 3 1 0 0 19 37 19 27 9 1 2 1 0
0 0 6 3 5 0 0 2 0 1 1 0 1 1 1 0 0 3 0 0 0 0 0 0 0 0 0 0 0 1 2 1 0 5 7 1 0 1 0 0 0 1 12 9 15 3 3 15 4
0 0 0 0 0 0 0 0 1 0 0 1 1 1 1 1 0 0 0 0 0 0 0 0 0 0 0 0 0 0 0 0 2 1 0 8 11 3 0 0 2 3 12 13 5 21 16 9 6
0 0 0 2 7 5 0 0 0 0 0 0 0 0 1 1 1 1 0 0 0 0 0 0 0 0 0 0 0 0 0 0 0 1 1 0 14 5 13 3 0 2 1 2 28 7 15 27 2
3 3 0 2 0 0 0 0 0 0 0 0 0 1 0 0 0 1 1 0 0 0 0 0 0 0 0 0 0 0 0 0 0 0 0 0 0 0 18 27 10 2 0 0 0 8 5 6 6
0 0 5 0 0 0 0 0 0 0 1 0 0 0 0 0 0 0 0 0 0 0 0 0 0 0 0 0 0 0 0 0 0 0 0 0 0 0 0 19 12 9 1 7 2 0 4 2 4
CIN
0 0 0 0 0 0 0 0 0 0 0 0 0 0 0 0 0 -49 -45 -30 -46 -49 -77 -51 -43 -35 -38 -32 -23 -4 -3 -4 -5 -2 0 0 -4 -15 -36 -62 -70 -61 -56 -40 -21 -52 -75 -119 -171
0 0 0 0 0 0 0 0 0 0 0 0 0 0 0 0 0 -11 -10 -36 -31 -40 -69 -69 -37 -34 -38 -45 -50 -36 -6 -5 -5 -5 0 0 -1 -3 -17 -52 -103 -150 -111 -46 -91 -166 -7 0 0
0 0 0 0 0 0 0 0 0 0 0 0 0 0 0 0 -89 -33 -23 -68 -36 -23 -28 -53 -30 -19 -36 -54 -50 -31 -26 -10 -9 -9 -3 -1 0 -1 -6 -69 -110 -157 0 -150 -172 0 0 0 0
0 0 0 0 0 0 0 0 0 0 0 0 0 0 0 -6 -10 -7 -52 -45 -36 -6 -4 -29 -24 -6 -3 -19 -38 -24 -11 -7 -8 -3 -3 -2 -1 -1 -3 -43 -137 -53 0 0 -255 0 0 0 0
0 0 0 0 0 0 0 0 0 0 0 0 0 0 0 0 -159 -58 -55 -24 -5 -1 -9 -23 -20 -4 -1 -2 -14 -36 -18 -3 -3 -6 -3 -1 -1 -5 -5 -135 0 0 0 0 0 0 0 -123 -3
0 0 0 0 0 0 0 0 0 0 0 0 0 0 0 0 -231 -80 -61 -56 -3 -2 -4 -14 -34 -14 -11 -6 -8 -13 -11 -3 -3 -6 -3 -2 -1 -2 -21 -204 0 0 0 0 0 0 -40 -2 -46
0 0 0 0 0 0 0 0 0 0 0 0 0 0 0 0 0 -187 -51 -68 -50 -7 -11 -5 -26 -18 -13 -11 -26 -16 -4 -3 -3 -6 -11 -6 -1 -1 -40 -221 0 0 0 0 -1 0 -5 -213 -16
0 0 0 0 0 0 0 0 0 0 0 0 0 0 0 0 0 -262 -191 -64 -46 -9 -10 -3 -3 -7 -12 -14 -15 -25 -14 -2 -5 -5 -13 -7 -4 -4 -61 -258 0 0 0 0 0 0 -3 -6 -15
0 0 0 0 0 0 0 0 0 0 0 0 0 0 0 0 0 -154 0 0 -153 -52 -18 -5 -1 -2 -4 -2 -9 -8 -19 -14 -4 -7 -13 -11 0 -10 -171 0 0 0 0 0 0 0 -4 -7 -30
0 0 0 0 0 0 0 0 0 0 0 0 0 0 0 0 0 0 0 0 0 0 0 -22 -2 -1 -2 -4 -5 -3 0 -1 -1 0 -2 -1 -1 -23 -72 0 0 0 0 0 -3 0 -5 -19 -25
0 0 0 0 0 0 0 0 0 0 0 0 0 0 0 0 0 0 0 0 0 0 0 0 0 -38 -2 -2 -2 -4 -1 -1 0 0 -1 -1 -2 -63 0 0 0 0 0 0 0 -1 -1 -10 -2
0 0 0 0 0 0 0 0 0 0 0 0 0 0 0 0 0 0 0 0 0 0 0 0 0 0 0 -115 -3 -2 -4 -1 -2 -1 -1 -4 -3 -31 0 0 0 0 0 0 -1 -1 -2 -2 -1
0 0 0 0 0 0 0 0 0 0 0 0 0 0 0 0 0 0 0 0 0 0 0 0 0 0 0 0 0 -45 -11 -5 -1 -2 -6 -7 -1 -118 0 0 0 0 0 -1 -1 -3 -2 -4 -6
0 0 0 0 0 0 0 0 0 0 0 0 0 0 0 0 0 0 0 0 0 0 0 0 0 0 0 0 0 0 0 -12 -4 -4 -3 -8 -14 -92 -19 0 0 0 0 0 -1 -1 -11 -28 -10
0 0 0 0 0 0 0 0 0 0 0 0 0 0 0 0 0 0 0 0 0 0 0 0 0 0 0 0 0 0 -1 -12 -4 -2 0 -3 -19 -70 -58 -15 0 0 0 0 -10 -4 -1 -9 -3
0 0 0 0 0 0 0 0 0 0 0 0 0 0 0 0 0 0 0 0 0 0 0 0 0 0 0 0 0 0 0 -25 -2 -1 0 -2 -24 -23 -74 -20 0 0 0 0 -11 -2 -1 -12 -3
0 0 0 0 0 0 0 0 0 0 0 0 0 0 0 0 0 0 0 0 0 0 0 0 0 0 0 0 0 0 0 -1 -3 -2 -5 -2 -2 -12 -37 0 0 0 0 -1 -4 -1 -4 -6 -3
0 0 0 0 0 0 0 0 0 0 0 0 0 0 0 0 0 0 0 0 -38 -256 -69 0 0 0 0 0 0 -31 -14 -28 -28 -2 -4 -6 -2 -1 -6 0 0 0 -1 -3 -3 -1 -2 -3 -6
0 0 0 0 0 0 0 0 0 0 -2 0 0 0 0 0 0 0 0 0 -2 -275 -257 -326 0 0 0 0 0 -39 -61 -38 -24 -5 -8 -1 -6 -7 -1 -5 -1 0 0 -5 -3 -3 -2 -8 -9
0 0 0 0 0 -1 0 0 0 0 0 -4 0 0 0 0 0 0 0 0 0 0 0 0 -1 -36 0 -175 -51 -73 -15 -18 -41 -7 -10 -13 -4 -14 -3 -6 -1 0 0 -14 0 0 -4 -3 -24
0 -3 0 -2 0 0 -4 -7 0 0 -24 0 0 0 0 -1 0 -1 0 0 0 0 0 0 -1 -1 -73 -124 -61 -53 -21 -81 -21 -41 -21 -6 -2 -12 -8 -8 -6 -1 0 0 0 0 0 0 0
-4 -1 -5 -5 -5 -1 -1 -1 -5 -2 -54 0 0 -1 -1 -1 0 0 0 0 0 0 0 0 -1 -2 -2 -4 -2 -68 -36 0 0 -1 0 -1 -1 -12 -9 -5 -4 -12 -1 0 0 0 0 0 0
0 0 0 -4 -4 -5 -5 -1 0 -1 -5 0 0 0 0 0 0 0 0 0 0 0 0 0 0 0 -1 -5 -2 -2 0 -1 -2 -1 0 -1 0 -6 0 -4 -1 -6 -9 -1 0 0 0 0 0
-6 0 0 0 0 -2 0 -4 0 -10 -19 0 0 0 0 0 0 0 0 0 0 0 0 0 0 0 0 0 -1 0 -1 -2 -3 -2 -2 -2 -11 -14 -3 -6 -2 -1 -14 -6 -9 0 0 0 0
0 0 0 -1 0 0 -6 -63 0 0 0 0 0 0 0 0 0 0 0 0 0 0 0 0 0 0 0 0 0 0 -2 0 -4 0 -3 -2 -6 0 0 -2 -6 -1 -5 -2 -15 -1 0 0 0
0 0 -5 -7 -8 -4 0 -47 0 0 0 0 0 0 -1 -1 0 0 0 0 0 0 0 0 0 0 0 0 0 0 0 0 -1 -3 -4 -16 0 -36 -1 -6 0 -1 -4 -7 -14 0 -5 -30 -39
0 0 0 0 0 0 0 0 0 0 0 0 0 0 0 0 0 0 0 0 0 0 0 0 0 0 0 0 0 0 0 0 0 0 0 -10 -10 -17 -5 0 -10 0 -24 -16 -57 -11 -29 -21 -9
0 0 0 -2 -7 -6 -2 0 0 0 0 0 0 0 0 0 0 0 -1 0 0 0 0 0 0 0 0 0 0 0 0 0 0 0 0 0 -8 -8 -6 -15 -9 0 -1 -7 -2 -1 -5 -1 -8
-6 -21 0 -8 0 -4 -4 0 0 0 0 0 0 0 0 0 0 0 -1 0 0 0 0 0 0 0 0 0 0 0 0 0 0 0 0 0 0 0 -2 -1 -10 -32 -2 -1 -2 -1 -1 -1 -1
-2 0 -3 -2 0 0 0 0 0 0 0 0 0 0 0 0 0 0 0 0 0 0 0 0 0 0 0 0 0 0 0 0 0 0 0 0 0 0 0 -2 -5 -4 -1 -14 -5 0 -1 -7 -14
Wind_Speed
15 14 13 12 16 18 24 21 19 19 19 14 18 15 20 21 22 23 14 15 14 7 2 3 3 2 0 0 2 3 4 2 2 2 4 8 9 8 8 8 6 6 4 5 7 7 7 8 8
15 13 12 16 20 22 25 17 19 19 16 17 17 18 20 21 20 17 14 14 13 9 3 4 4 4 3 3 3 1 1 1 2 3 6 7 9 9 8 8 6 6 6 5 6 6 7 8 9
13 12 15 17 20 21 24 20 22 18 19 18 18 18 18 19 16 17 15 14 12 9 5 8 6 6 6 5 6 5 3 3 4 5 6 9 10 10 6 6 7 8 9 8 7 7 8 9 8
13 12 14 17 20 21 22 23 20 19 18 17 18 21 16 18 16 14 14 13 10 9 7 5 7 8 9 8 7 8 8 7 7 7 8 10 12 9 6 6 9 11 12 11 7 7 8 8 6
12 11 15 17 20 21 21 20 18 18 18 17 15 21 20 17 14 14 12 12 9 9 8 6 7 9 9 9 10 10 11 10 9 9 10 11 10 7 4 5 9 13 13 12 9 8 7 7 5
10 13 14 15 19 16 17 15 11 14 15 16 18 21 22 14 14 13 12 11 10 9 11 9 9 9 11 11 11 11 12 13 12 11 11 10 7 6 7 7 8 10 11 12 10 7 6 4 5
9 9 8 15 20 20 19 16 11 10 10 10 14 22 18 15 12 13 13 13 12 11 12 11 11 12 13 14 14 13 13 13 14 13 12 10 9 7 8 9 8 10 12 12 11 8 7 3 3
13 15 17 16 18 23 16 15 16 12 10 9 11 21 22 16 8 12 13 14 14 13 14 15 14 14 15 17 18 16 15 16 15 14 14 12 9 8 9 10 11 10 12 13 13 10 10 9 3
14 15 16 17 20 20 18 18 15 17 16 14 10 13 20 17 8 10 14 15 15 16 17 18 18 17 18 19 17 19 19 17 16 16 14 13 12 11 9 11 9 11 12 12 12 10 10 4 5
12 16 20 22 22 21 23 21 23 22 19 17 16 14 16 17 15 12 11 16 17 18 19 20 21 22 21 18 19 19 20 20 18 17 15 15 16 14 14 11 10 10 11 11 12 11 8 5 8
16 18 22 26 25 27 28 29 27 27 25 25 23 19 18 18 18 18 16 16 20 21 20 20 20 22 24 24 21 22 23 23 22 20 19 18 16 16 14 13 13 12 12 11 10 11 9 12 8
22 21 25 28 29 29 30 32 31 30 31 29 27 25 26 25 26 23 23 21 21 24 23 22 21 22 24 26 25 22 22 23 25 23 20 20 19 16 16 15 14 13 11 8 9 10 12 13 10
23 26 28 29 29 31 35 33 34 34 32 31 31 32 33 31 29 27 23 23 24 24 25 26 26 28 28 28 29 27 23 22 24 24 23 21 19 17 17 15 14 14 11 11 10 12 10 12 11
27 30 30 30 32 35 37 39 36 33 33 32 32 34 36 37 33 32 30 28 26 26 26 27 31 32 32 32 31 31 28 26 21 23 24 22 21 20 18 17 15 15 14 14 12 14 10 12 12
28 35 34 34 33 32 37 44 36 33 31 32 33 36 37 34 34 35 34 32 29 28 28 28 29 30 30 30 31 31 28 30 28 22 23 22 22 22 20 20 18 16 15 15 12 15 11 12 12
32 34 40 30 28 27 28 49 41 37 31 34 35 34 34 32 29 30 31 32 32 30 29 28 28 27 29 29 28 29 28 25 29 27 22 23 22 23 21 23 20 18 16 15 13 14 14 14 15
27 37 36 35 29 34 33 52 38 33 35 39 37 35 34 31 28 28 29 28 30 31 32 32 31 31 28 28 28 28 27 27 25 27 26 24 24 23 24 24 24 22 18 17 14 14 15 15 17
39 40 43 45 38 38 42 51 52 46 45 45 40 37 35 32 30 29 29 29 30 30 31 32 31 31 28 26 26 26 26 26 24 23 26 26 25 25 24 24 24 23 21 19 17 15 16 15 15
43 46 49 48 45 47 49 54 53 48 43 41 39 37 36 33 27 27 26 26 28 28 29 30 30 28 27 27 27 27 28 27 26 25 24 24 26 25 25 24 23 22 22 19 18 18 16 17 15
42 46 51 52 45 45 50 52 47 44 44 41 37 34 32 27 26 26 26 25 25 28 28 28 27 26 26 25 25 26 26 26 26 25 24 24 24 25 25 24 23 23 22 22 19 18 17 18 15
43 45 50 53 56 51 50 56 51 44 35 27 27 25 24 23 23 24 26 26 25 25 25 26 24 24 24 24 24 24 21 22 24 25 25 24 24 23 25 25 24 23 23 23 22 20 19 20 18
53 47 52 55 54 59 46 63 47 37 26 23 20 19 18 19 20 23 25 25 24 23 22 22 21 21 22 23 24 25 25 25 25 24 25 25 25 25 25 24 23 23 25 25 23 22 23 22 21
54 49 50 50 51 49 46 47 41 31 27 18 16 15 16 17 18 18 19 20 20 20 19 19 18 17 20 20 21 23 24 23 22 23 24 25 25 24 25 26 24 24 24 24 23 24 25 24 25
43 43 47 43 39 44 38 37 36 30 25 7 12 14 16 16 16 15 16 16 17 16 16 16 16 16 15 15 17 20 22 23 24 24 25 25 26 26 26 26 26 25 25 24 23 24 25 25 25
42 47 47 45 40 43 33 27 20 15 11 12 15 15 15 15 15 15 16 16 16 15 15 15 15 15 15 16 16 18 20 22 23 24 25 26 26 26 27 26 27 27 25 25 24 25 25 25 26
46 39 40 43 35 31 31 24 20 16 15 15 16 16 15 14 13 14 15 15 15 15 14 14 15 15 14 15 17 17 19 21 23 25 25 26 28 27 26 28 29 29 27 26 25 26 26 26 26
40 36 34 33 31 31 27 22 18 15 15 16 17 17 17 17 16 15 15 15 15 16 15 15 16 15 15 16 17 18 20 22 23 25 26 27 28 28 28 28 29 29 29 28 24 28 27 28 29
31 34 31 24 26 25 24 18 18 17 17 16 17 18 17 17 18 19 19 18 17 16 17 16 16 17 17 18 18 19 20 21 23 24 25 27 28 29 30 29 29 29 28 30 29 28 28 29 29
33 24 22 24 24 25 25 18 19 17 17 17 19 20 20 20 20 19 20 20 20 20 20 19 19 20 19 19 20 21 21 21 21 22 23 25 27 27 29 29 28 29 29 27 28 29 30 31 33
31 25 25 20 20 27 28 17 16 16 18 20 22 23 23 21 20 20 21 22 22 22 23 23 23 24 23 23 23 22 23 23 22 24 25 25 27 28 30 31 29 30 30 30 30 31 32 33 33
Wind_Direction
8 14 11 1 322 315 300 303 308 312 311 317 310 306 298 288 298 287 320 310 306 299 278 238 239 253 215 26 15 53 81 70 53 19 292 261 259 264 274 272 277 276 328 351 24 31 35 29 8
16 21 14 335 312 303 305 311 310 310 317 322 316 307 300 294 290 306 308 308 307 297 270 247 232 241 252 259 275 311 50 39 305 297 279 268 267 269 278 264 271 262 285 349 6 358 344 326 336
68 48 344 329 316 308 307 317 310 316 311 314 313 310 305 304 304 303 308 306 301 298 283 263 241 245 251 262 262 266 272 288 285 281 278 270 268 270 271 258 258 262 273 300 335 348 325 313 334
93 68 9 328 317 316 314 318 320 317 318 312 305 305 309 306 312 310 309 306 302 299 293 263 249 250 255 259 262 265 269 272 275 274 275 274 268 268 263 256 265 269 272 284 321 342 338 308 333
87 57 355 342 326 321 325 324 327 319 315 316 309 295 303 313 313 318 317 310 300 294 293 288 259 253 255 257 262 264 264 266 270 271 272 271 272 263 252 271 283 271 274 281 297 310 316 308 17
42 24 357 346 339 344 341 344 348 332 325 323 312 301 300 324 311 311 312 309 304 291 289 289 268 260 262 261 262 264 264 263 264 268 270 269 268 259 262 276 290 276 276 280 285 296 295 343 29
22 8 345 337 331 333 334 342 339 336 331 324 333 308 311 320 314 312 306 302 296 290 285 284 272 267 266 263 263 263 264 264 263 263 263 265 265 261 272 277 287 279 275 278 279 281 276 304 358
352 345 336 336 331 326 344 343 340 333 321 335 337 317 306 325 329 312 306 297 291 285 281 277 276 270 268 265 263 263 262 262 262 261 259 260 258 264 274 279 281 284 276 277 269 268 268 271 298
346 331 326 325 323 326 335 331 337 337 323 324 323 310 329 333 353 327 302 295 289 283 279 276 272 270 269 268 264 261 261 259 259 258 256 253 256 261 272 279 283 280 277 279 267 260 270 266 281
327 316 320 325 322 321 321 322 318 319 319 309 306 306 309 317 315 311 303 293 284 279 277 274 271 269 267 267 267 262 260 259 257 253 251 252 255 258 269 278 280 280 279 273 267 257 264 265 277
321 306 312 315 314 311 308 307 310 306 302 304 304 304 303 297 297 298 294 288 284 279 276 272 271 269 267 266 266 266 262 259 256 252 250 249 253 257 263 274 273 275 276 271 261 262 258 264 275
307 305 305 304 306 307 305 306 302 299 297 300 301 302 299 296 296 291 287 286 281 279 273 270 269 268 268 267 265 264 262 259 256 253 249 247 253 250 260 268 267 270 269 258 261 263 263 267 272
299 303 305 304 302 301 303 300 299 295 299 299 295 293 292 290 289 288 285 283 280 276 272 269 267 267 266 265 264 263 261 258 257 253 248 246 247 248 257 263 264 265 263 259 262 264 264 266 267
312 310 304 302 300 299 299 297 297 297 298 293 293 292 290 288 285 285 282 280 275 274 271 270 267 266 264 264 260 260 260 261 256 254 250 244 248 247 254 260 261 262 261 261 261 264 270 262 265
310 305 304 301 297 295 304 296 293 300 298 296 297 294 291 289 287 283 280 275 272 272 270 269 269 266 263 260 257 257 259 258 259 254 249 244 249 248 251 256 259 262 262 262 256 263 268 263 265
305 304 301 307 310 302 302 291 303 306 302 300 300 299 297 293 290 287 283 273 271 270 268 267 267 266 262 257 256 255 257 258 256 256 252 246 247 248 248 252 255 260 260 260 259 260 261 263 264
304 301 302 302 307 305 296 295 304 310 304 300 299 297 298 293 284 289 285 278 273 271 269 267 265 263 261 257 255 254 255 257 257 255 254 250 248 248 250 250 254 259 258 257 258 260 259 261 258
307 303 300 299 302 300 295 292 296 300 299 296 295 293 293 292 284 286 286 281 277 273 272 268 265 261 258 255 253 252 254 255 257 256 254 253 252 251 251 252 253 254 258 258 258 257 259 258 258
303 301 298 299 301 297 294 293 296 299 299 298 296 291 289 290 288 289 287 284 278 275 273 270 264 260 254 250 248 249 252 254 256 258 257 255 254 253 253 254 252 250 253 252 256 263 254 255 256
303 300 298 300 302 299 298 295 298 298 298 297 298 295 293 290 288 288 284 284 279 272 273 271 267 261 253 251 249 252 254 254 256 257 258 257 256 253 253 253 254 251 249 255 251 250 261 258 249
303 302 302 300 302 299 299 294 296 297 299 300 302 299 297 294 291 287 282 277 276 274 272 271 267 262 258 254 252 255 253 256 256 257 258 258 258 255 254 255 256 253 251 250 252 247 250 253 254
304 307 304 302 301 297 300 296 297 299 298 300 304 307 305 301 295 288 281 275 275 278 276 275 272 264 261 259 253 251 252 254 256 258 259 259 260 257 257 257 257 256 257 253 249 252 249 250 250
307 309 305 302 299 299 296 297 298 297 286 291 305 309 308 306 304 296 291 283 281 284 281 277 277 278 267 260 257 254 255 258 260 262 262 262 262 261 260 260 261 259 258 257 251 251 254 254 252
321 319 312 305 298 295 300 294 297 297 296 280 311 312 305 298 306 312 309 299 291 294 288 283 280 280 280 276 265 259 258 260 262 265 265 264 263 263 262 262 261 260 261 259 255 254 254 254 257
326 323 316 310 304 299 310 311 331 344 342 311 309 315 309 304 302 311 312 310 308 303 290 289 287 286 286 279 276 273 270 267 268 268 267 266 265 265 263 263 262 262 262 262 261 258 256 254 257
321 317 314 310 311 316 313 308 301 322 324 331 317 310 310 308 309 313 312 315 318 322 309 304 292 289 294 292 285 285 281 276 275 274 272 269 267 267 267 264 263 264 264 262 263 262 261 260 261
323 311 312 307 301 298 293 305 314 311 307 322 324 316 309 305 304 307 308 318 316 316 324 311 303 302 300 296 292 291 286 283 281 279 277 273 270 269 268 267 266 264 263 264 262 264 266 264 265
322 322 316 311 306 296 286 288 304 315 316 309 313 311 318 316 307 305 306 306 307 312 307 317 316 303 301 300 297 294 293 291 288 286 282 279 274 272 269 267 267 266 266 265 266 266 267 267 267
337 340 331 311 295 299 285 289 306 314 313 308 312 315 315 309 312 308 308 308 307 304 302 305 309 307 302 301 301 299 297 298 298 294 291 286 281 279 272 268 267 267 268 269 269 270 271 269 268
6 353 341 331 315 287 275 294 314 319 318 312 313 319 317 311 305 306 312 309 308 306 304 303 299 299 302 305 299 297 298 298 299 296 294 291 286 282 278 273 270 269 269 270 271 271 274 272 271